Tracking 25710 objects as of 5-Jul-2022
HD Live streaming from Space Station
objects crossing your sky now

STARLINK-1899

Track STARLINK-1899 now!
10-day predictions
STARLINK-1899 is classified as:


NORAD ID: 46787
Int'l Code: 2020-074BA
Perigee: 553.3 km
Apogee: 555.4 km
Inclination: 53.1 °
Period: 95.6 minutes
Semi major axis: 6925 km
RCS: Unknown
Launch date: October 24, 2020
Source: United States (US)
Launch site: AIR FORCE EASTERN TEST RANGE (AFETR)
aabbcc
Your satellite tracking list
Your tracking list is empty




NASA's NSSDC Master Catalog

Two Line Element Set (TLE):
1 46787U 20074BA  22186.27176018  .00001287  00000-0  10531-3 0  9997
2 46787  53.0539 202.4503 0001560  73.6998 286.4162 15.06399823 94298
Source of the keplerian elements: AFSPC